FW4606 Weather Reports


time (UTC)temp
F
wind
direction
speed
knots
gust
knots
rain 1hr
in
rain 24hr
in
rain mn
in
humidity
%
barometer
mb
20230128010056 12 168 0.0 0.9 0.00 0.00 0.00 74 1011.6
20230128005556 12 277 0.0 0.9 0.00 0.00 0.00 74 1011.4
20230128005056 12 246 0.0 1.7 0.00 0.00 0.00 74 1011.2
20230128004555 13 249 0.0 3.5 0.00 0.00 0.00 75 1011.2
20230128004055 13 278 0.0 3.5 0.00 0.00 0.00 75 1011.2
20230128003555 12 228 0.0 0.9 0.00 0.00 0.00 75 1011.2
20230128003053 12 271 0.0 0.9 0.00 0.00 0.00 74 1011.0
20230128002554 13 203 0.0 1.7 0.00 0.00 0.00 73 1010.9
20230128002054 13 242 0.0 3.5 0.00 0.00 0.00 74 1010.8
20230128001554 13 126 0.0 3.5 0.00 0.00 0.00 74 1010.7
20230128001048 13 266 0.0 2.6 0.00 0.00 0.00 74 1010.6
20230128000549 13 283 0.0 0.9 0.00 0.00 0.00 74 1010.4
20230128000050 13 187 0.0 1.7 0.00 0.00 0.00 74 1010.3
20230127235549 14 259 0.0 4.3 0.00 0.00 0.00 74 1010.2
20230127235048 14 190 0.0 4.3 0.00 0.00 0.00 74 1009.9
20230127234820 14 266 0.0 0.9 0.00 0.00 0.00 74 1009.8
20230127234322 14 127 0.0 0.9 0.00 0.00 0.00 74 1009.7
20230127233550 14 281 0.0 0.9 0.00 0.00 0.00 74 1009.6
20230127233049 15 263 0.0 0.9 0.00 0.00 0.00 73 1009.2
20230127232546 15 277 0.0 0.9 0.00 0.00 0.00 73 1009.0
20230127232044 15 274 0.0 0.9 0.00 0.00 0.00 72 1008.9
20230127231816 16 118 0.0 0.9 0.00 0.00 0.00 72 1008.6
20230127231045 16 148 0.9 5.2 0.00 0.00 0.00 71 1008.5
20230127230545 17 126 0.9 5.2 0.00 0.00 0.00 70 1008.4
20230127230047 18 221 0.9 5.2 0.00 0.00 0.00 69 1008.2
20230127225546 19 270 0.9 5.2 0.00 0.00 0.00 68 1008.1
20230127225046 19 214 0.9 2.6 0.00 0.00 0.00 67 1008.0
20230127224818 19 219 0.9 2.6 0.00 0.00 0.00 67 1007.7
20230127224042 20 139 0.0 2.6 0.00 0.00 0.00 67 1007.6
20230127223814 20 281 0.0 1.7 0.00 0.00 0.00 67 1007.5
20230127223043 20 219 0.0 0.9 0.00 0.00 0.00 68 1007.4
20230127222546 20 263 0.0 2.6 0.00 0.00 0.00 66 1007.3
20230127222540 20 266 0.0 0.9 0.00 0.00 0.00 68 1007.3
20230127221540 20 162 0.9 5.2 0.00 0.00 0.00 66 1007.2
20230127221042 21 146 0.9 5.2 0.00 0.00 0.00 66 1007.1
20230127220540 21 269 0.0 1.7 0.00 0.00 0.00 66 1006.9
20230127220313 22 281 0.0 1.7 0.00 0.00 0.00 65 1006.8
20230127215537 23 265 0.0 0.9 0.00 0.00 0.00 64 1006.6
20230127215037 23 240 0.0 0.9 0.00 0.00 0.00 65 1006.5
20230127214537 23 294 0.0 1.7 0.00 0.00 0.00 66 1006.3
20230127214036 24 288 0.0 2.6 0.00 0.00 0.00 66 1006.2
20230127213536 23 256 0.0 2.6 0.00 0.00 0.00 67 1006.2
20230127213036 23 277 0.0 2.6 0.00 0.00 0.00 67 1006.0
20230127212537 23 222 0.0 7.0 0.00 0.00 0.00 66 1006.1
20230127212036 22 139 0.0 7.0 0.00 0.00 0.00 66 1006.0
20230127211538 23 243 0.0 3.5 0.00 0.00 0.00 67 1005.9
20230127211306 22 345 0.0 1.7 0.00 0.00 0.00 68 1005.8
20230127210532 22 281 0.0 2.6 0.00 0.00 0.00 67 1005.8
20230127210032 22 252 0.9 6.1 0.00 0.00 0.00 68 1005.7
20230127205533 22 219 0.9 6.1 0.00 0.00 0.00 68 1005.4
20230127205034 22 291 0.9 6.1 0.00 0.00 0.00 69 1005.3
20230127204534 23 275 0.9 6.1 0.00 0.00 0.00 68 1005.3
20230127204033 23 288 0.0 3.5 0.00 0.00 0.00 70 1005.1
20230127203533 23 288 0.0 3.5 0.00 0.00 0.00 70 1005.1
20230127203035 23 259 0.9 6.1 0.00 0.00 0.00 70 1005.0
20230127202530 23 295 1.7 6.1 0.00 0.00 0.00 69 1004.9
20230127202028 23 256 0.9 7.8 0.00 0.00 0.00 69 1004.8
20230127201528 23 282 0.9 7.8 0.00 0.00 0.00 70 1004.8
20230127201259 23 276 0.0 3.5 0.00 0.00 0.00 72 1004.7
20230127200529 23 106 0.0 3.5 0.00 0.00 0.00 73 1004.6
20230127200029 24 257 0.0 5.2 0.00 0.00 0.00 73 1004.5
20230127195802 24 334 0.0 5.2 0.00 0.00 0.00 72 1004.3
20230127195028 24 203 0.9 5.2 0.00 0.00 0.00 72 1004.4
20230127194529 24 277 1.7 8.7 0.00 0.00 0.00 72 1004.3
20230127194030 23 236 1.7 8.7 0.00 0.00 0.00 72 1004.2
20230127193529 23 284 0.0 9.6 0.00 0.00 0.00 75 1004.1
20230127193030 23 248 0.9 9.6 0.00 0.00 0.00 74 1004.0
20230127192530 23 316 0.9 7.0 0.00 0.00 0.00 74 1004.0
20230127192029 23 312 0.9 7.0 0.00 0.00 0.00 74 1003.9
20230127191529 23 288 0.9 4.3 0.00 0.00 0.00 75 1003.8
20230127191026 23 270 1.7 5.2 0.00 0.00 0.00 75 1003.6
20230127190526 23 295 0.9 5.2 0.00 0.00 0.00 75 1003.8
20230127190302 24 303 1.7 9.6 0.00 0.00 0.00 75 1003.7
20230127185522 24 285 2.6 9.6 0.00 0.00 0.00 74 1003.5
20230127185020 24 280 0.9 5.2 0.00 0.00 0.00 74 1003.4
20230127184746 24 282 0.9 3.5 0.00 0.00 0.00 75 1003.3
20230127184009 23 314 0.9 5.2 0.00 0.00 0.00 75 1003.2
20230127183503 23 15 1.7 5.2 0.00 0.00 0.00 75 1003.1
20230127182957 23 243 1.7 7.8 0.00 0.00 0.00 75 1003.0
20230127182451 23 271 1.7 10.4 0.00 0.00 0.00 75 1003.0
20230127181945 23 297 1.7 10.4 0.00 0.00 0.00 75 1003.1
20230127181710 23 281 0.9 7.8 0.00 0.00 0.00 75 1003.0
20230127180933 23 120 0.9 7.8 0.00 0.00 0.00 76 1003.0
20230127180427 23 248 1.7 9.6 0.00 0.00 0.00 76 1003.0
20230127175921 24 210 0.9 9.6 0.00 0.00 0.00 76 1002.8
20230127175414 24 179 0.9 5.2 0.00 0.00 0.00 77 1002.6
20230127174909 24 301 0.9 5.2 0.00 0.00 0.00 76 1002.4
20230127174402 24 259 0.9 6.1 0.00 0.00 0.00 77 1002.4
20230127173857 24 156 1.7 7.8 0.00 0.00 0.00 78 1002.2
20230127173351 23 102 0.9 7.8 0.00 0.00 0.00 78 1002.1
20230127172844 23 234 0.9 6.1 0.00 0.00 0.00 79 1002.2
20230127172609 24 302 0.9 6.1 0.00 0.00 0.00 80 1002.1
20230127172104 24 285 1.7 7.0 0.00 0.00 0.00 81 1002.0
20230127171327 23 257 1.7 7.0 0.00 0.00 0.00 81 1001.9
20230127170821 23 27 0.9 7.0 0.00 0.00 0.00 81 1001.8
20230127170315 23 4 0.0 4.3 0.00 0.00 0.00 82 1001.9
20230127165808 23 137 0.9 7.0 0.00 0.00 0.00 82 1001.8
20230127165306 23 293 0.9 7.0 0.00 0.00 0.00 82 1001.5
20230127164758 23 194 0.9 7.0 0.00 0.00 0.00 83 1001.5
20230127164250 23 276 1.7 7.0 0.00 0.00 0.00 83 1001.4
20230127163745 23 163 1.7 7.0 0.00 0.00 0.00 83 1001.3
20230127163238 23 136 1.7 7.0 0.00 0.00 0.00 84 1001.2
20230127162733 24 272 0.9 5.2 0.00 0.00 0.00 84 1001.1
20230127162227 24 302 0.9 5.2 0.00 0.00 0.00 85 1000.9
20230127161721 24 255 0.9 6.1 0.00 0.00 0.00 84 1000.8
20230127161215 24 239 0.9 6.1 0.00 0.00 0.00 85 1000.5
20230127160709 24 262 0.9 8.7 0.00 0.00 0.00 85 1000.4
20230127160203 25 285 0.9 8.7 0.00 0.00 0.00 85 1000.3
20230127155927 25 266 0.9 8.7 0.00 0.00 0.00 86 1000.2
20230127155150 25 288 0.9 8.7 0.00 0.00 0.00 86 999.9
20230127154645 26 291 1.7 9.6 0.00 0.00 0.00 85 999.8
20230127154140 26 294 1.7 9.6 0.00 0.00 0.00 85 999.5
20230127154134 26 285 0.9 7.0 0.00 0.00 0.00 85 999.3
20230127153127 26 243 0.0 1.7 0.00 0.00 0.00 86 999.3
20230127152851 26 273 0.0 0.9 0.00 0.00 0.00 86 999.1
20230127152114 26 301 0.0 0.9 0.00 0.00 0.00 86 999.0
20230127151609 26 304 0.0 6.1 0.00 0.00 0.00 86 998.8
20230127151104 27 228 0.0 6.1 0.00 0.00 0.00 86 998.7
20230127150604 27 353 0.9 6.1 0.00 0.00 0.00 85 998.4
20230127150336 28 288 0.0 6.1 0.00 0.00 0.00 87 998.3
20230127145610 29 225 0.0 3.5 0.00 0.00 0.00 89 997.7
20230127145604 29 79 0.0 3.5 0.00 0.00 0.00 88 998.0
20230127144606 29 188 0.0 2.6 0.00 0.00 0.00 89 997.6
20230127144105 29 271 0.0 3.5 0.00 0.00 0.00 89 997.4
20230127143604 29 293 0.0 3.5 0.00 0.00 0.00 90 997.2
20230127143106 29 214 0.0 3.5 0.00 0.00 0.00 90 997.1
20230127142604 30 303 0.0 8.7 0.00 0.00 0.00 90 996.9
20230127142104 30 323 0.9 8.7 0.00 0.00 0.00 90 996.8
20230127141604 31 187 1.7 10.4 0.00 0.00 0.00 90 996.6
20230127141106 31 148 0.9 10.4 0.00 0.00 0.00 90 996.5
20230127140605 32 253 0.9 6.1 0.00 0.00 0.00 92 996.1
20230127140105 32 276 0.0 3.5 0.00 0.00 0.00 93 996.0
20230127135557 32 314 0.0 3.5 0.00 0.00 0.00 94 995.7
20230127135051 32 304 0.0 6.1 0.00 0.00 0.00 95 995.4
20230127134545 32 288 0.0 6.1 0.00 0.00 0.00 95 995.3
20230127134039 32 278 0.0 2.6 0.00 0.00 0.00 95 995.2
20230127133533 31 284 0.0 2.6 0.00 0.00 0.00 95 995.1
20230127133026 31 274 0.0 0.9 0.00 0.00 0.00 95 995.1
20230127132520 31 188 0.0 1.7 0.00 0.00 0.00 96 995.0
20230127132015 31 261 0.0 1.7 0.00 0.00 0.00 96 994.9
20230127131508 30 156 0.0 1.7 0.00 0.00 0.00 95 994.8
20230127131003 30 114 0.0 0.0 0.00 0.00 0.00 95 994.7
20230127130728 29 203 0.0 0.0 0.00 0.00 0.00 95 994.6
20230127125950 29 203 0.0 0.0 0.00 0.00 0.00 95 994.6
20230127125445 29 203 0.0 0.0 0.00 0.00 0.00 95 994.6
20230127124939 29 204 0.0 0.0 0.00 0.00 0.00 95 994.4
20230127124433 29 217 0.0 0.0 0.00 0.00 0.00 95 994.4
20230127123926 29 225 0.0 0.0 0.00 0.00 0.00 94 994.2
20230127123419 29 215 0.0 0.0 0.00 0.00 0.00 94 994.2
20230127122913 29 226 0.0 0.9 0.00 0.00 0.00 94 994.2
20230127122407 29 218 0.0 0.9 0.00 0.00 0.00 94 993.9
20230127121901 29 173 0.0 0.9 0.00 0.00 0.00 95 993.9
20230127121355 28 225 0.0 0.9 0.00 0.00 0.00 95 993.8
20230127120849 28 106 0.0 0.0 0.00 0.00 0.00 94 993.8
20230127120343 28 189 0.0 2.6 0.00 0.00 0.00 94 993.8
20230127115838 28 215 0.0 2.6 0.00 0.00 0.00 94 993.8
20230127115330 28 207 0.0 0.9 0.00 0.00 0.00 94 993.8
20230127114825 28 221 0.0 2.6 0.00 0.00 0.00 94 993.7
20230127114319 27 107 0.0 2.6 0.00 0.00 0.00 94 993.7
20230127113812 27 150 0.0 1.7 0.00 0.00 0.00 94 993.7
20230127113307 27 214 0.0 2.6 0.00 0.00 0.00 94 993.8
20230127112801 27 145 0.0 4.3 0.00 0.00 0.00 94 993.7
20230127112255 27 176 0.0 4.3 0.00 0.00 0.00 94 993.8
20230127112020 27 222 0.9 5.2 0.00 0.00 0.00 94 993.8
20230127111242 27 131 0.9 5.2 0.00 0.00 0.00 94 993.9
20230127110738 26 242 0.9 3.5 0.00 0.00 0.00 94 993.9
20230127110230 26 210 0.9 3.5 0.00 0.00 0.00 94 993.9
20230127105724 26 131 0.9 4.3 0.00 0.00 0.00 94 994.2
20230127105219 26 236 0.9 4.3 0.00 0.00 0.00 94 994.3
20230127104713 26 91 0.9 4.3 0.00 0.00 0.00 94 994.3
20230127104207 26 116 1.7 7.0 0.00 0.00 0.00 94 994.4
20230127103929 25 193 0.9 6.1 0.00 0.00 0.00 93 994.4
20230127103803 26 181 1.7 7.0 0.00 0.00 0.00 94 994.3
20230127102649 25 154 0.9 4.3 0.00 0.00 0.00 93 994.4
20230127102143 25 152 0.9 4.3 0.00 0.00 0.00 93 994.5
20230127101644 25 128 0.9 4.3 0.00 0.00 0.00 93 994.5
20230127101143 25 153 0.9 6.1 0.00 0.00 0.00 93 994.7
20230127100645 25 144 1.7 6.1 0.00 0.00 0.00 93 994.6
20230127100143 25 63 1.7 5.2 0.00 0.00 0.00 93 994.6
20230127095644 25 108 1.7 5.2 0.00 0.00 0.00 93 994.7
20230127095141 24 101 0.9 5.2 0.00 0.00 0.00 93 994.8
20230127094641 24 200 0.9 4.3 0.00 0.00 0.00 93 995.0
20230127094141 24 132 0.9 6.1 0.00 0.00 0.00 93 995.0
20230127093640 24 103 1.7 6.1 0.00 0.00 0.00 93 995.1
20230127093140 24 75 0.9 5.2 0.00 0.00 0.00 93 995.2
20230127092913 23 144 1.7 9.6 0.00 0.00 0.00 93 995.3
20230127092411 23 153 1.7 9.6 0.00 0.00 0.00 93 995.4
20230127091642 23 166 0.9 7.0 0.00 0.00 0.00 93 995.6
20230127091141 23 141 1.7 7.0 0.00 0.00 0.00 93 995.6
20230127090642 22 103 1.7 7.0 0.00 0.00 0.00 93 995.7
20230127090143 22 149 0.9 7.0 0.00 0.00 0.00 92 995.9
20230127085912 22 197 0.9 4.3 0.00 0.00 0.00 92 995.9
20230127085137 22 135 0.9 4.3 0.00 0.00 0.00 92 996.0
20230127084630 21 103 0.9 4.3 0.00 0.00 0.00 92 996.1
20230127084125 21 167 1.7 5.2 0.00 0.00 0.00 92 996.2
20230127083619 21 164 1.7 5.2 0.00 0.00 0.00 92 996.4
20230127083344 21 214 0.9 5.2 0.00 0.00 0.00 92 996.5
20230127082606 20 148 0.9 5.2 0.00 0.00 0.00 92 996.7
20230127082101 20 127 1.7 5.2 0.00 0.00 0.00 92 996.9
20230127081554 20 167 1.7 5.2 0.00 0.00 0.00 92 996.9
20230127081048 20 186 1.7 6.1 0.00 0.00 0.00 92 997.0
20230127080542 20 197 1.7 6.1 0.00 0.00 0.00 91 997.1
20230127080307 19 160 1.7 8.7 0.00 0.00 0.00 91 997.3
20230127075530 19 174 1.7 8.7 0.00 0.00 0.00 91 997.4
20230127075024 19 163 1.7 6.1 0.00 0.00 0.00 91 997.6
20230127074518 18 131 1.7 6.1 0.00 0.00 0.00 91 997.7
20230127074012 18 165 1.7 6.1 0.00 0.00 0.00 91 998.0
20230127073508 18 122 1.7 6.1 0.00 0.00 0.00 91 998.2
20230127073000 18 142 0.9 6.1 0.00 0.00 0.00 91 998.3
20230127072454 17 121 0.9 7.0 0.00 0.00 0.00 91 998.3
20230127072219 17 211 1.7 7.0 0.00 0.00 0.00 91 998.5
20230127071444 17 108 0.9 7.8 0.00 0.00 0.00 91 998.6
20230127071207 17 167 0.9 7.8 0.00 0.00 0.00 90 998.8
20230127070430 17 117 1.7 7.8 0.00 0.00 0.00 90 998.8
20230127065925 17 159 1.7 7.8 0.00 0.00 0.00 90 998.9
20230127065418 17 219 1.7 7.8 0.00 0.00 0.00 90 999.1
20230127064915 16 210 1.7 5.2 0.00 0.00 0.00 90 999.2
20230127064908 16 118 1.7 7.0 0.00 0.00 0.00 90 999.3
20230127063906 16 89 1.7 7.0 0.00 0.00 0.00 90 999.5
20230127063406 16 118 1.7 8.7 0.00 0.00 0.00 90 999.7
20230127062906 16 252 1.7 8.7 0.00 0.00 0.00 89 999.9
20230127062411 16 143 0.9 5.2 0.00 0.00 0.00 89 1000.3
20230127062406 16 175 1.7 5.2 0.00 0.00 0.00 89 1000.0
20230127061406 16 158 0.9 4.3 0.00 0.00 0.00 89 1000.4
20230127060906 16 133 0.9 6.1 0.00 0.00 0.00 89 1000.6
20230127060406 16 229 1.7 7.0 0.00 0.00 0.00 88 1000.8
20230127055905 16 166 1.7 7.0 0.00 0.00 0.00 88 1000.9
20230127055405 16 131 1.7 7.0 0.00 0.00 0.00 88 1001.1
20230127054904 16 143 1.7 7.0 0.00 0.00 0.00 87 1001.3
20230127054406 16 96 1.7 7.8 0.00 0.00 0.00 87 1001.4
20230127053906 15 153 1.7 7.8 0.00 0.00 0.00 87 1001.6
20230127053405 15 149 1.7 7.0 0.00 0.00 0.00 87 1001.8
20230127053136 15 91 1.7 8.7 0.00 0.00 0.00 87 1001.9
20230127052404 15 122 1.7 8.7 0.00 0.00 0.00 86 1002.1
20230127051905 15 148 0.9 7.8 0.00 0.00 0.00 86 1002.1
20230127051404 15 181 1.7 7.0 0.00 0.00 0.00 86 1002.4
20230127050905 15 133 0.9 7.0 0.00 0.00 0.00 85 1002.6
20230127050405 15 136 0.9 5.2 0.00 0.00 0.00 86 1002.6
20230127045906 15 132 0.9 4.3 0.00 0.00 0.00 86 1002.8
20230127045405 15 79 0.9 7.0 0.00 0.00 0.00 86 1003.0
20230127044900 15 100 0.9 7.0 0.00 0.00 0.00 86 1003.2
20230127044401 15 97 1.7 7.8 0.00 0.00 0.00 86 1003.4
20230127043902 15 118 0.9 7.8 0.00 0.00 0.00 86 1003.7
20230127043401 15 123 0.9 5.2 0.00 0.00 0.00 85 1004.1
20230127042901 15 162 0.9 5.2 0.00 0.00 0.00 85 1004.2
20230127042403 14 165 0.9 5.2 0.00 0.00 0.00 85 1004.4
20230127041903 14 153 0.0 3.5 0.00 0.00 0.00 85 1004.5
20230127041402 14 172 0.9 5.2 0.00 0.00 0.00 84 1004.7
20230127041134 14 187 0.9 5.2 0.00 0.00 0.00 84 1005.0
20230127040358 14 122 0.9 5.2 0.00 0.00 0.00 84 1005.0
20230127040136 14 242 0.9 6.1 0.00 0.00 0.00 83 1005.3
20230127035858 14 170 0.9 5.2 0.00 0.00 0.00 84 1005.1
20230127034858 14 148 1.7 6.1 0.00 0.00 0.00 83 1005.5
20230127034357 14 116 0.9 6.1 0.00 0.00 0.00 83 1005.5
20230127033857 14 150 0.9 5.2 0.00 0.00 0.00 83 1005.8
20230127033358 14 134 0.0 3.5 0.00 0.00 0.00 84 1005.9
20230127032857 14 204 0.9 4.3 0.00 0.00 0.00 84 1006.1
20230127032358 14 148 0.0 4.3 0.00 0.00 0.00 84 1006.3
20230127031853 14 224 0.0 7.0 0.00 0.00 0.00 85 1006.5
20230127031352 14 197 0.9 7.0 0.00 0.00 0.00 85 1006.5
20230127030852 14 158 0.9 5.2 0.00 0.00 0.00 85 1006.6
20230127030353 14 135 0.0 4.3 0.00 0.00 0.00 85 1006.8
20230127025854 14 135 0.9 7.0 0.00 0.00 0.00 85 1006.9
20230127025352 14 102 0.9 7.0 0.00 0.00 0.00 85 1007.0
20230127025123 14 194 0.9 7.0 0.00 0.00 0.00 85 1007.1
20230127024353 13 135 0.9 7.0 0.00 0.00 0.00 85 1007.1
20230127024125 13 226 0.9 6.1 0.00 0.00 0.00 84 1007.1
20230127023348 13 195 0.0 3.5 0.00 0.00 0.00 84 1007.2
20230127023119 13 116 0.0 4.3 0.00 0.00 0.00 84 1007.4
20230127022350 13 115 0.0 4.3 0.00 0.00 0.00 84 1007.4
20230127021853 13 150 0.0 4.3 0.00 0.00 0.00 84 1008.0
20230127021848 13 133 0.0 3.5 0.00 0.00 0.00 84 1007.7
20230127020850 13 142 0.0 4.3 0.00 0.00 0.00 84 1008.1
20230127020619 13 173 0.0 4.3 0.00 0.00 0.00 84 1008.2
20230127015849 13 100 0.9 4.3 0.00 0.00 0.00 83 1008.3
20230127015350 13 94 0.9 4.3 0.00 0.00 0.00 83 1008.4
20230127014846 13 117 0.9 4.3 0.00 0.00 0.00 83 1008.5
20230127014345 13 86 0.0 3.5 0.00 0.00 0.00 83 1008.6
20230127013845 13 126 0.0 5.2 0.00 0.00 0.00 83 1008.7
20230127013346 13 153 0.9 5.2 0.00 0.00 0.00 83 1009.1
20230127012845 13 113 0.9 5.2 0.00 0.00 0.00 83 1009.5
20230127012345 13 165 0.0 6.1 0.00 0.00 0.00 82 1009.7
20230127011845 13 172 0.0 6.1 0.00 0.00 0.00 82 1009.8
20230127011618 13 224 0.0 3.5 0.00 0.00 0.00 82 1009.9
20230127010845 13 148 0.0 3.5 0.00 0.00 0.00 81 1010.0